Christmas Island, Christmas Island

6:40 AM +07 on August 18, 2017 (GMT +0700)
Christmas Island

Weather History for YPXM - November, 2012

Change the Weather History Date:

Sunday, November 25, 2012

  Actual Average Record
Temperature  
Mean Temperature 78 °F -  
Max Temperature 84 °F 78 °F 84 °F (2012)
Min Temperature 73 °F 70 °F 68 °F (1998)
Cooling Degree Days 14    
Growing Degree Days 28 (Base 50)    
Moisture  
Dew Point 73 °F    
Average Humidity 82    
Maximum Humidity 100    
Minimum Humidity 67    
Precipitation  
Precipitation 0.12 in - - ()
Sea Level Pressure  
Sea Level Pressure 29.89 in    
Wind  
Wind Speed 12 mph ()    
Max Wind Speed 17 mph    
Max Gust Speed 25 mph    
Visibility 5.7 miles    
Events      
Averages and records for this station are not official NWS values.
T = Trace of Precipitation, MM = Missing Value Source: Averaged Metar Reports

Daily Weather History Graph

Daily Weather History Graph

Search for Another Location

Airport or City:

Trip Planner

Search our weather history database for the weather conditions in past years. The results will help you decide how hot, cold, wet, or windy it might be!

Date:

Astronomy

Nov. 25, 2012 Rise Set
Actual Time 5:24 AM +07 6:04 PM +07
Civil Twilight 5:01 AM +07 6:26 PM +07
Nautical Twilight 4:35 AM +07 6:53 PM +07
Astronomical Twilight 4:08 AM +07 7:20 PM +07
Moon 3:29 PM +07 (11/25) 2:48 AM +07 (11/25)
Length of Visible Light 13h 24m
Length of Day
12h 39m
Waxing Gibbous, 90% of the Moon is Illuminated
Nov 25
Waxing Gibbous
Nov 28
Full
Dec 6
Last Quarter
Dec 13
New
Dec 20
First Quarter

Hourly Weather History & Observations

Time (+07) Temp. Heat Index Dew Point Humidity Pressure Visibility Wind Dir Wind Speed Gust Speed Precip Events Conditions
12:00 AM 77 °F - 72 °F 79% 29.88 in - ESE 13.8 mph - -   Overcast
12:00 AM 77.0 °F - 71.6 °F 83% 29.92 in 6.2 mi ESE 13.8 mph - N/A   Overcast
12:12 AM 77.0 °F - 73.4 °F 89% 29.92 in 6.2 mi ESE 12.7 mph - N/A   Overcast
1:00 AM 76 °F - 72 °F 82% 29.83 in - SE 11.5 mph - -  
1:00 AM 77.0 °F - 71.6 °F 83% 29.86 in 6.2 mi SE 11.5 mph - N/A   Scattered Clouds
1:05 AM 77.0 °F - 71.6 °F 83% 29.86 in 6.2 mi SE 11.5 mph - N/A   Mostly Cloudy
1:58 AM 77.0 °F - 71.6 °F 83% 29.86 in 6.2 mi SE 10.4 mph - N/A   Mostly Cloudy
2:00 AM 77.0 °F - 71.6 °F 83% 29.86 in 6.2 mi SE 10.4 mph - N/A   Mostly Cloudy
2:38 AM 77.0 °F - 71.6 °F 83% 29.83 in 6.2 mi SE 10.4 mph - N/A   Mostly Cloudy
3:00 AM 76 °F - 71 °F 82% 29.81 in - SE 10.4 mph - -   Overcast
3:00 AM 77.0 °F - 71.6 °F 83% 29.83 in 6.2 mi SE 10.4 mph - N/A   Mostly Cloudy
3:10 AM 77.0 °F - 71.6 °F 83% 29.83 in 6.2 mi SE 9.2 mph - N/A   Overcast
3:56 AM 77.0 °F - 71.6 °F 83% 29.86 in 6.2 mi SE 12.7 mph - N/A   Overcast
4:00 AM 76 °F - 71 °F 80% 29.81 in - SE 11.5 mph - -  
4:00 AM 77.0 °F - 71.6 °F 83% 29.86 in 6.2 mi SE 11.5 mph - N/A   Overcast
5:00 AM 77.0 °F - 71.6 °F 83% 29.86 in 6.2 mi SE 12.7 mph - N/A   Overcast
5:01 AM 77.0 °F - 71.6 °F 83% 29.86 in 6.2 mi SE 12.7 mph - N/A   Overcast
5:11 AM 77.0 °F - 71.6 °F 83% 29.86 in 6.2 mi SE 12.7 mph - N/A   Mostly Cloudy
5:32 AM 77.0 °F - 71.6 °F 83% 29.86 in 6.2 mi SE 11.5 mph - N/A   Mostly Cloudy
6:00 AM 77 °F - 71 °F 77% 29.85 in - SE 11.5 mph - -   Overcast
6:00 AM 77.0 °F - 71.6 °F 83% 29.89 in 6.2 mi SE 11.5 mph - N/A   Mostly Cloudy
6:29 AM 75.2 °F - 73.4 °F 94% 29.92 in 6.2 mi ESE 13.8 mph - N/A   Overcast
7:00 AM 74 °F - 73 °F 96% 29.88 in - SSE 10.4 mph - -  
7:00 AM 75.2 °F - 73.4 °F 94% 29.92 in 4.3 mi SSE 10.4 mph - N/A   Overcast
8:00 AM 78.8 °F - 69.8 °F 74% 29.92 in 6.2 mi SE 13.8 mph - N/A   Mostly Cloudy
8:18 AM 78.8 °F - 69.8 °F 74% 29.95 in 6.2 mi SE 15.0 mph - N/A   Overcast
9:00 AM 79 °F - 70 °F 67% 29.91 in - SE 15.0 mph - -   Overcast
9:00 AM 78.8 °F - 69.8 °F 74% 29.95 in 6.2 mi SE 15.0 mph - N/A   Overcast
9:17 AM 78.8 °F - 69.8 °F 74% 29.95 in 6.2 mi SE 15.0 mph - N/A   Overcast
9:25 AM 78.8 °F - 69.8 °F 74% 29.95 in 6.2 mi SE 15.0 mph - N/A   Overcast
9:53 AM 78.8 °F - 71.6 °F 78% 29.95 in 6.2 mi SE 12.7 mph - N/A   Overcast
9:55 AM 80.6 °F 84.6 °F 71.6 °F 74% 29.95 in 6.2 mi SE 12.7 mph - N/A   Overcast
10:00 AM 80 °F - 72 °F 70% 29.91 in - SE 11.5 mph - -  
10:00 AM 80.6 °F 84.6 °F 71.6 °F 74% 29.95 in 6.2 mi SE 11.5 mph - N/A   Overcast
11:00 AM 82.4 °F 88.2 °F 73.4 °F 74% 29.92 in 6.2 mi SE 16.1 mph - N/A   Overcast
12:00 PM 82 °F - 75 °F 73% 29.89 in - SE 13.8 mph - -  
12:00 PM 82.4 °F 89.5 °F 75.2 °F 79% 29.92 in 6.2 mi SE 13.8 mph - N/A   Mostly Cloudy
12:23 PM 80.6 °F 85.4 °F 73.4 °F 79% 29.92 in 6.2 mi SE 13.8 mph - N/A   Mostly Cloudy
1:00 PM 83 °F - 74 °F 67% 29.87 in - SE 12.7 mph - -  
1:00 PM 82.4 °F 88.2 °F 73.4 °F 74% 29.89 in 6.2 mi SE 12.7 mph - N/A   Mostly Cloudy
1:06 PM 82.4 °F 88.2 °F 73.4 °F 74% 29.89 in 6.2 mi SE 13.8 mph - N/A   Mostly Cloudy
1:10 PM 84.2 °F 90.9 °F 73.4 °F 70% 29.89 in 6.2 mi SE 15.0 mph - N/A   Mostly Cloudy
2:00 PM 80.6 °F 85.4 °F 73.4 °F 79% 29.89 in 6.2 mi SE 12.7 mph - N/A   Overcast
2:10 PM 80.6 °F 85.4 °F 73.4 °F 79% 29.89 in 6.2 mi SE 13.8 mph - N/A   Overcast
2:26 PM 80.6 °F 85.4 °F 73.4 °F 79% 29.89 in 6.2 mi SE 15.0 mph - N/A   Mostly Cloudy
3:00 PM 80 °F - 73 °F 74% 29.84 in - SE 13.8 mph - -   Overcast
3:00 PM 78.8 °F - 73.4 °F 83% 29.86 in 6.2 mi SE 13.8 mph - N/A   Overcast
3:28 PM 80.6 °F 86.2 °F 75.2 °F 84% 29.86 in 6.2 mi SE 12.7 mph - N/A   Overcast
4:00 PM 79 °F - 74 °F 79% 29.83 in - SE 12.7 mph - -  
4:00 PM 78.8 °F - 73.4 °F 83% 29.86 in 6.2 mi SE 12.7 mph - N/A   Overcast
4:21 PM 77.0 °F - 75.2 °F 94% 29.86 in 5.6 mi SE 11.5 mph - N/A   Mostly Cloudy
5:00 PM 78.8 °F - 73.4 °F 83% 29.86 in 6.2 mi SE 12.7 mph - N/A   Overcast
6:00 PM 78 °F - 74 °F 84% 29.85 in - SE 12.7 mph - -   Overcast
6:00 PM 77.0 °F - 73.4 °F 89% 29.89 in 6.2 mi SE 12.7 mph - N/A   Overcast
7:00 PM 78 °F - 75 °F 86% 29.87 in - ESE 13.8 mph - -  
7:00 PM 77.0 °F - 75.2 °F 94% 29.92 in 6.2 mi ESE 13.8 mph - N/A   Overcast
7:53 PM 77.0 °F - 73.4 °F 89% 29.92 in 3.7 mi SE 13.8 mph 25.3 mph N/A   Overcast
8:00 PM 75.2 °F - 73.4 °F 94% 29.95 in 6.2 mi East 17.3 mph - N/A   Overcast
9:00 PM 75 °F - 75 °F 99% 29.91 in 0 mi ESE 12.7 mph - -  
9:00 PM 75.2 °F - 75.2 °F 100% 29.95 in 0.2 mi ESE 12.7 mph - N/A   Overcast
10:00 PM 75 °F - 74 °F 96% 29.91 in - SE 13.8 mph - -  
10:00 PM 75.2 °F - 73.4 °F 94% 29.95 in 3.1 mi SE 13.8 mph - N/A   Overcast
10:31 PM 75.2 °F - 73.4 °F 94% 29.95 in 6.2 mi SE 11.5 mph - N/A   Overcast
11:00 PM 75.2 °F - 73.4 °F 94% 29.95 in 4.3 mi SE 11.5 mph - N/A   Overcast